Location: Colonia Mina de C?rbuni
(46.1667°N, 22.7167°E)
Time: 16:06:32
(UTC+00:00)

Vanguard 1 Rocket - Pass Details

Date: 19 April 2024
Orbit: 650 x 4220 km, 34.3° (Epoch: 22 May)

Event Time Altitude Azimuth Distance (km) Brightness Sun altitude
Rises 20:08:38 0° 257° (WSW) 3,706 10.9 -24.3°
Reaches altitude 10° 20:10:58 10° 249° (WSW) 3,024 10.2 -24.6°
Maximum altitude 20:17:49 38° 183° (S) 2,348 9.0 -25.3°
Enters shadow 20:18:57 37° 170° (S) 2,498 9.1 -25.4°
